OBJECT C, 60205

Orbit data source: Space-Track

You're viewing an Uncataloged Satellite

Recently launched and/or uncataloged satellites may have evolving metadata. Metadata may include but not limited to: Owner, Maufacturer, Bus, Motor, and Mission.

OBJECT C, 60205 is an American satellite in SSO that was launched on Thu, 04 Jul 2024 UTC via an FIREFLY ALPHA launch vehicle from the Air Force Western Test Range (AFWTR). Unknown objects in Earth's orbit typically refer to objects detected orbiting the Earth but have not yet been identified or cataloged. These objects could be anything from previously untracked satellites, spent rocket stages, debris from satellite collisions, or even natural meteoroids temporarily captured by Earth's gravity.

Loading next visibility...
Identifier
60205, 2024-125C
Orbit
SSO
Country
Flag of USUS
Related business
None
Manufacturer
Unknown
Mission
Operational Amateur Communications
Bus & Motor
Unknown
Mass
Unknown
Launch date (UTC)
2024-07-04 (1 year ago)
Launch vehicle
FIREFLY ALPHA
Launch site
Air Force Western Test Range (AFWTR)
Object type
Unknown
Shape & HBR
Box, 0.1 m
Radar Cross Section
0.035 m², Small (<0.1 m²)

Expand to show TLE details & history
Last TLE update: 1 day ago

TLE from 1 day ago
0 OBJECT C
1 60205U 24125C   25348.57756940  .00062586  00000-0  74554-3 0  9997
2 60205  97.2452 203.0616 0009724 142.7531 217.4403 15.60845879 81178
Epoch: 2025-12-14T13:51Z
TLE epoch observation values (Epoch: 2025-12-14T13:51:41.996Z)
Latitude
0.00001°
Longitude
-88.35187°
Altitude
393.588 km
Speed
7.671 km/s
True Right ascension
13h 32m 14s
True Declination
0° 00' 00"
Sunlit
Object was in daylight at epoch
Visualization orbit readout
Latitude
Unknown
Longitude
Unknown
Altitude
Unknown
Speed
Unknown
Apparent Right ascension
Unknown
Apparent Declination
Unknown
Sunlit
N/A
Visualization observer readout
Local Sidereal Time
13:25:37
Azimuth
Unknown
Elevation
Unknown
Doppler factor
Unknown
Orbital elements
Apogee altitude
388.691 km
Perigee altitude
375.543 km
Semi-major axis
6,760.254 km
Eccentricity
0.00097
Inclination
97.2452°
RAAN
203.0616°
Arg. of periapsis
142.7531°
True anomaly
217.37262°
Mean anomaly
217.4403°
Eccentric anomaly
217.40646°
Mean motion
3.9048 °/min
Orbital period
92.19 mins
BSTAR
0.00074554
Loading maneuver chart data...
Computing Atmospheric mass density...
Loading historical data...
Loading historical data...
Loading historical data...
Loading historical data...
Loading historical data...
Loading historical data...
Loading historical data...

Documentation

Showing up to 5 results
|